EW9532 Weather Reports


Display with metric or nautical units.
time (UTC)temp
F
wind
direction
speed
MPH
gust
MPH
rain 1hr
in
rain 24hr
in
rain mn
in
humidity
%
barometer
mb
20260831010602 92 60 6.0 12.0 0.00 0.00 0.00 58 1013.7
20260831010104 92 355 6.0 11.0 0.00 0.00 0.00 57 1013.7
20260831005602 93 114 7.0 11.0 0.00 0.00 0.00 57 1013.5
20260831005102 93 133 5.0 10.0 0.00 0.00 0.00 57 1013.3
20260831004616 93 340 5.0 12.0 0.00 0.00 0.00 56 1013.3
20260831004601 93 250 6.0 12.0 0.00 0.00 0.00 57 1013.1
20260831004104 94 123 4.0 12.0 0.00 0.00 0.00 56 1013.0
20260831003604 94 111 4.0 12.0 0.00 0.00 0.00 55 1012.8
20260831003107 94 288 5.0 11.0 0.00 0.00 0.00 53 1013.1
20260831003103 94 255 5.0 12.0 0.00 0.00 0.00 54 1012.9
20260831002603 95 200 6.0 11.0 0.00 0.00 0.00 53 1012.8
20260831002102 95 256 5.0 10.0 0.00 0.00 0.00 53 1012.8
20260831001604 95 2 5.0 11.0 0.00 0.00 0.00 51 1012.9
20260831001601 95 210 6.0 11.0 0.00 0.00 0.00 52 1012.7
20260831001340 96 310 5.0 11.0 0.00 0.00 0.00 51 1012.6
20260831000602 96 311 5.0 10.0 0.00 0.00 0.00 50 1012.5
20260831000104 96 56 4.0 13.0 0.00 0.00 0.00 50 1012.8
20260830235602 97 176 6.0 13.0 0.00 0.00 0.00 50 1012.5
20260830235337 97 160 5.0 11.0 0.00 0.00 0.00 49 1012.6
20260830234602 98 201 4.0 11.0 0.00 0.00 0.00 48 1012.5
20260830234103 98 245 2.0 11.0 0.00 0.00 0.00 47 1012.5
20260830233602 98 214 4.0 11.0 0.00 0.00 0.00 48 1012.4
20260830233328 98 264 6.0 11.0 0.00 0.00 0.00 47 1012.4
20260830233108 97 190 6.0 13.0 0.00 0.00 0.00 47 1012.5
20260830232602 98 26 5.0 11.0 0.00 0.00 0.00 47 1012.3
20260830232326 99 184 4.0 11.0 0.00 0.00 0.00 47 1012.3
20260830231603 99 152 3.0 11.0 0.00 0.00 0.00 45 1012.5
20260830231601 100 58 4.0 11.0 0.00 0.00 0.00 46 1012.4
20260830231103 100 32 4.0 9.0 0.00 0.00 0.00 46 1012.3
20260830230604 100 124 3.0 10.0 0.00 0.00 0.00 46 1012.4
20260830230116 100 64 4.0 10.0 0.00 0.00 0.00 47 1012.3
20260830230100 99 304 3.0 10.0 0.00 0.00 0.00 46 1012.3
20260830225604 100 330 4.0 10.0 0.00 0.00 0.00 46 1012.2
20260830225103 100 297 5.0 10.0 0.00 0.00 0.00 46 1012.2
20260830224606 100 288 4.0 10.0 0.00 0.00 0.00 44 1012.4
20260830224603 100 288 5.0 9.0 0.00 0.00 0.00 44 1012.1
20260830224104 101 37 5.0 9.0 0.00 0.00 0.00 45 1012.1
20260830223604 101 130 4.0 12.0 0.00 0.00 0.00 45 1012.0
20260830223104 101 258 6.0 13.0 0.00 0.00 0.00 43 1012.1
20260830223055 100 252 6.0 13.0 0.00 0.00 0.00 43 1012.3
20260830222603 101 191 5.0 13.0 0.00 0.00 0.00 42 1011.9
20260830222326 101 250 6.0 11.0 0.00 0.00 0.00 42 1011.9
20260830221603 102 198 5.0 10.0 0.00 0.00 0.00 41 1012.2
20260830221104 102 39 5.0 10.0 0.00 0.00 0.00 42 1012.0
20260830220604 103 56 4.0 8.0 0.00 0.00 0.00 41 1011.9
20260830220328 103 19 4.0 8.0 0.00 0.00 0.00 40 1011.9
20260830220105 102 173 3.0 7.0 0.00 0.00 0.00 39 1012.1
20260830215606 103 148 2.0 9.0 0.00 0.00 0.00 40 1012.1
20260830215104 102 108 4.0 9.0 0.00 0.00 0.00 41 1011.9
20260830214603 102 41 5.0 8.0 0.00 0.00 0.00 41 1012.0
20260830214553 101 122 4.0 9.0 0.00 0.00 0.00 40 1012.2
20260830214103 101 245 3.0 10.0 0.00 0.00 0.00 42 1012.1
20260830213830 101 113 5.0 10.0 0.00 0.00 0.00 41 1012.1
20260830213105 102 236 4.0 11.0 0.00 0.00 0.00 41 1012.2
20260830213056 101 120 5.0 13.0 0.00 0.00 0.00 41 1012.3
20260830212604 102 194 4.0 14.0 0.00 0.00 0.00 41 1012.1
20260830212105 102 8 2.0 14.0 0.00 0.00 0.00 42 1012.4
20260830211559 101 222 7.0 12.0 0.00 0.00 0.00 43 1012.3
20260830211555 101 257 6.0 12.0 0.00 0.00 0.00 43 1012.5
20260830211055 101 234 5.0 11.0 0.00 0.00 0.00 43 1012.5
20260830210815 101 129 6.0 12.0 0.00 0.00 0.00 43 1012.6
20260830210107 101 342 4.0 12.0 0.00 0.00 0.00 43 1012.7
20260830210045 101 342 5.0 12.0 0.00 0.00 0.00 43 1012.6
20260830205541 101 300 3.0 6.0 0.00 0.00 0.00 44 1012.7
20260830205036 101 359 3.0 8.0 0.00 0.00 0.00 40 1012.8
20260830204756 102 110 2.0 8.0 0.00 0.00 0.00 40 1012.9
20260830204618 102 293 2.0 9.0 0.00 0.00 0.00 40 1013.1
20260830204029 103 318 4.0 9.0 0.00 0.00 0.00 40 1013.0
20260830203530 103 269 6.0 9.0 0.00 0.00 0.00 40 1013.0
20260830203059 102 222 2.0 10.0 0.00 0.00 0.00 40 1013.4
20260830203029 103 288 2.0 5.0 0.00 0.00 0.00 40 1013.2
20260830202529 102 252 2.0 8.0 0.00 0.00 0.00 39 1013.3
20260830202028 103 44 4.0 9.0 0.00 0.00 0.00 39 1013.5
20260830201630 103 217 2.0 8.0 0.00 0.00 0.00 39 1013.6
20260830201529 103 252 2.0 9.0 0.00 0.00 0.00 39 1013.4
20260830201029 103 283 3.0 7.0 0.00 0.00 0.00 40 1013.6
20260830200526 103 98 2.0 7.0 0.00 0.00 0.00 39 1013.6
20260830200021 103 356 3.0 8.0 0.00 0.00 0.00 40 1013.7
20260830195516 103 195 4.0 7.0 0.00 0.00 0.00 39 1013.7
20260830195011 103 296 3.0 8.0 0.00 0.00 0.00 40 1014.0
20260830194602 103 262 3.0 8.0 0.00 0.00 0.00 39 1014.4
20260830194507 103 338 3.0 9.0 0.00 0.00 0.00 39 1014.1
20260830194224 103 167 4.0 9.0 0.00 0.00 0.00 39 1014.3
20260830193502 102 137 2.0 7.0 0.00 0.00 0.00 41 1014.2
20260830193058 102 178 2.0 7.0 0.00 0.00 0.00 39 1014.5
20260830193002 102 181 2.0 8.0 0.00 0.00 0.00 42 1014.4
20260830192729 101 139 4.0 8.0 0.00 0.00 0.00 42 1014.6
20260830192002 102 355 3.0 9.0 0.00 0.00 0.00 41 1014.6
20260830191628 102 213 2.0 9.0 0.00 0.00 0.00 40 1015.0
20260830191502 102 8 2.0 9.0 0.00 0.00 0.00 40 1014.8
20260830191002 102 72 3.0 8.0 0.00 0.00 0.00 43 1014.9
20260830190503 102 221 2.0 7.0 0.00 0.00 0.00 41 1015.0
20260830190108 101 246 2.0 9.0 0.00 0.00 0.00 40 1015.1
20260830190003 101 130 3.0 9.0 0.00 0.00 0.00 40 1015.1
20260830185503 101 131 6.0 9.0 0.00 0.00 0.00 42 1015.1
20260830185002 101 79 3.0 9.0 0.00 0.00 0.00 42 1015.2
20260830184604 99 170 3.0 8.0 0.00 0.00 0.00 45 1015.4
20260830184502 100 191 4.0 9.0 0.00 0.00 0.00 43 1015.2
20260830184002 101 276 3.0 9.0 0.00 0.00 0.00 42 1015.4
20260830183502 100 233 3.0 10.0 0.00 0.00 0.00 44 1015.4
20260830183056 99 262 4.0 9.0 0.00 0.00 0.00 44 1015.6
20260830183002 100 61 4.0 10.0 0.00 0.00 0.00 44 1015.4
20260830182502 99 238 5.0 9.0 0.00 0.00 0.00 47 1015.7
20260830182002 100 89 4.0 9.0 0.00 0.00 0.00 46 1015.7
20260830181554 99 240 3.0 13.0 0.00 0.00 0.00 46 1016.0
20260830181500 99 60 4.0 10.0 0.00 0.00 0.00 46 1015.8
20260830181240 99 271 5.0 14.0 0.00 0.00 0.00 48 1015.9
20260830180501 99 286 4.0 14.0 0.00 0.00 0.00 46 1016.0
20260830180056 98 125 4.0 12.0 0.00 0.00 0.00 46 1016.2
20260830180001 99 56 5.0 13.0 0.00 0.00 0.00 47 1016.0
20260830175501 99 291 3.0 10.0 0.00 0.00 0.00 47 1016.0
20260830175219 99 340 2.0 10.0 0.00 0.00 0.00 48 1016.1
20260830174601 98 127 2.0 8.0 0.00 0.00 0.00 47 1016.3
20260830174458 98 50 3.0 8.0 0.00 0.00 0.00 50 1016.2
20260830174216 98 344 4.0 9.0 0.00 0.00 0.00 48 1016.3
20260830173450 98 70 4.0 9.0 0.00 0.00 0.00 48 1016.3
20260830173055 97 331 2.0 11.0 0.00 0.00 0.00 51 1016.5
20260830172946 97 309 2.0 12.0 0.00 0.00 0.00 52 1016.4
20260830172703 97 150 4.0 12.0 0.00 0.00 0.00 50 1016.7
20260830171937 97 45 4.0 11.0 0.00 0.00 0.00 51 1016.7
20260830171553 96 265 3.0 10.0 0.00 0.00 0.00 52 1016.8
20260830171434 97 257 4.0 9.0 0.00 0.00 0.00 52 1016.7
20260830171150 96 284 4.0 9.0 0.00 0.00 0.00 53 1016.8
20260830170429 96 266 4.0 7.0 0.00 0.00 0.00 54 1016.7
20260830165929 96 300 3.0 8.0 0.00 0.00 0.00 56 1016.7
20260830165429 96 212 3.0 9.0 0.00 0.00 0.00 54 1016.9
20260830164928 95 235 4.0 9.0 0.00 0.00 0.00 55 1016.9
20260830164553 95 69 3.0 10.0 0.00 0.00 0.00 54 1017.2
20260830164428 95 28 3.0 9.0 0.00 0.00 0.00 54 1016.9
20260830163928 94 207 4.0 9.0 0.00 0.00 0.00 58 1017.0
20260830163429 95 302 5.0 8.0 0.00 0.00 0.00 56 1016.9
20260830163101 94 2 2.0 10.0 0.00 0.00 0.00 59 1017.2
20260830162928 94 264 3.0 11.0 0.00 0.00 0.00 58 1016.9
20260830162428 94 316 3.0 11.0 0.00 0.00 0.00 58 1017.0
20260830161931 94 46 4.0 6.0 0.00 0.00 0.00 59 1017.1
20260830161605 93 152 3.0 7.0 0.00 0.00 0.00 59 1017.4
20260830161429 94 285 3.0 6.0 0.00 0.00 0.00 60 1017.1
20260830160928 93 265 4.0 7.0 0.00 0.00 0.00 60 1017.2
20260830160651 92 33 3.0 8.0 0.00 0.00 0.00 62 1017.2
20260830160157 92 201 5.0 10.0 0.00 0.00 0.00 63 1017.2
20260830160057 92 224 4.0 10.0 0.00 0.00 0.00 62 1017.4
20260830155429 92 354 3.0 11.0 0.00 0.00 0.00 65 1017.2
20260830154930 91 1 4.0 11.0 0.00 0.00 0.00 64 1017.3
20260830154609 91 127 3.0 8.0 0.00 0.00 0.00 66 1017.5
20260830154428 91 243 5.0 9.0 0.00 0.00 0.00 65 1017.3
20260830153929 91 229 3.0 9.0 0.00 0.00 0.00 67 1017.2
20260830153649 90 11 2.0 10.0 0.00 0.00 0.00 68 1017.2
20260830153103 89 321 3.0 11.0 0.00 0.00 0.00 67 1017.3
20260830152929 90 338 4.0 10.0 0.00 0.00 0.00 68 1017.1
20260830152429 89 191 3.0 10.0 0.00 0.00 0.00 70 1017.1
20260830151929 89 291 5.0 10.0 0.00 0.00 0.00 69 1017.1
20260830151556 88 42 3.0 9.0 0.00 0.00 0.00 70 1017.2
20260830151428 89 86 3.0 9.0 0.00 0.00 0.00 71 1016.9
20260830150929 89 285 4.0 9.0 0.00 0.00 0.00 71 1016.9
20260830150429 88 281 3.0 9.0 0.00 0.00 0.00 73 1017.0
20260830150106 88 356 2.0 9.0 0.00 0.00 0.00 73 1017.3
20260830145929 88 216 2.0 8.0 0.00 0.00 0.00 75 1017.1
20260830145429 87 289 5.0 8.0 0.00 0.00 0.00 75 1017.0
20260830144929 87 67 4.0 7.0 0.00 0.00 0.00 75 1016.9
20260830144612 87 213 2.0 8.0 0.00 0.00 0.00 75 1017.2
20260830144429 87 44 2.0 9.0 0.00 0.00 0.00 76 1016.9
20260830144413 87 285 3.0 9.0 0.00 0.00 0.00 76 1016.9
20260830143430 86 281 3.0 8.0 0.00 0.00 0.00 77 1016.9
20260830143100 86 281 1.0 9.0 0.00 0.00 0.00 78 1016.9
20260830142929 86 139 2.0 9.0 0.00 0.00 0.00 78 1016.7
20260830142428 86 133 3.0 9.0 0.00 0.00 0.00 79 1016.7
20260830141929 86 230 3.0 8.0 0.00 0.00 0.00 80 1016.5
20260830141555 85 160 2.0 4.0 0.00 0.00 0.00 80 1016.7
20260830141428 85 284 3.0 5.0 0.00 0.00 0.00 80 1016.6
20260830140929 85 146 3.0 6.0 0.00 0.00 0.00 81 1016.7
20260830140702 85 283 2.0 6.0 0.00 0.00 0.00 81 1016.6
20260830135929 84 295 2.0 6.0 0.00 0.00 0.00 83 1016.7
20260830135429 84 314 2.0 5.0 0.00 0.00 0.00 83 1016.6
20260830134929 84 350 1.0 7.0 0.00 0.00 0.00 84 1016.7
20260830134650 83 331 3.0 7.0 0.00 0.00 0.00 83 1016.6
20260830134559 83 326 3.0 6.0 0.00 0.00 0.00 83 1016.8
20260830133929 83 101 3.0 6.0 0.00 0.00 0.00 84 1016.5
20260830133430 83 333 2.0 5.0 0.00 0.00 0.00 84 1016.6
20260830133102 83 262 1.0 5.0 0.00 0.00 0.00 83 1016.7
20260830132929 83 35 2.0 5.0 0.00 0.00 0.00 84 1016.4
20260830132428 83 270 1.0 5.0 0.00 0.00 0.00 84 1016.4
20260830131929 83 225 1.0 6.0 0.00 0.00 0.00 84 1016.6
20260830131603 83 13 2.0 6.0 0.00 0.00 0.00 84 1016.6
20260830131429 83 148 2.0 6.0 0.00 0.00 0.00 84 1016.5
20260830130928 82 296 2.0 5.0 0.00 0.00 0.00 85 1016.4
20260830130429 82 290 2.0 5.0 0.00 0.00 0.00 86 1016.4
20260830130117 81 72 2.0 5.0 0.00 0.00 0.00 85 1016.5
20260830125930 82 92 2.0 5.0 0.00 0.00 0.00 86 1016.4
20260830125429 82 231 3.0 5.0 0.00 0.00 0.00 86 1016.3
20260830124929 81 252 3.0 5.0 0.00 0.00 0.00 87 1016.3
20260830124558 81 344 2.0 4.0 0.00 0.00 0.00 86 1016.5
20260830124428 81 173 2.0 4.0 0.00 0.00 0.00 87 1016.2
20260830123928 81 300 2.0 5.0 0.00 0.00 0.00 87 1016.2
20260830123429 81 293 3.0 5.0 0.00 0.00 0.00 87 1016.1
20260830123100 80 249 2.0 4.0 0.00 0.00 0.00 87 1016.2
20260830122929 81 44 2.0 4.0 0.00 0.00 0.00 87 1016.1
20260830122429 80 280 2.0 4.0 0.00 0.00 0.00 87 1016.0
20260830121929 81 236 2.0 4.0 0.00 0.00 0.00 87 1015.9
20260830121605 80 201 1.0 0.0 0.00 0.00 0.00 1016.3
20260830121429 81 323 2.0 5.0 0.00 0.00 0.00 87 1016.0
20260830120929 81 72 3.0 5.0 0.00 0.00 0.00 87 1016.0
20260830120444 81 274 2.0 5.0 0.00 0.00 0.00 87 1015.9
20260830120120 80 187 2.0 5.0 0.00 0.00 0.00 86 1016.1
20260830115930 81 198 3.0 5.0 0.00 0.00 0.00 87 1015.8
20260830115653 81 159 3.0 5.0 0.00 0.00 0.00 87 1015.9
20260830115420 81 198 2.0 5.0 0.00 0.00 0.00 87 1015.9
20260830114604 80 203 1.0 3.0 0.00 0.00 0.00 87 1016.0
20260830114430 81 128 2.0 3.0 0.00 0.00 0.00 87 1015.8
20260830113942 81 148 1.0 3.0 0.00 0.00 0.00 87 1015.9
20260830113425 81 221 2.0 3.0 0.00 0.00 0.00 87 1016.0
20260830113052 80 247 1.0 4.0 0.00 0.00 0.00 87 1016.0
20260830112921 81 345 2.0 4.0 0.00 0.00 0.00 87 1015.8
20260830112417 81 311 2.0 4.0 0.00 0.00 0.00 87 1015.9
20260830111912 81 65 2.0 4.0 0.00 0.00 0.00 87 1015.9
20260830111603 81 235 1.0 3.0 0.00 0.00 0.00 86 1016.3
20260830111408 81 221 2.0 4.0 0.00 0.00 0.00 87 1016.0
20260830110904 81 86 1.0 4.0 0.00 0.00 0.00 87 1015.9
20260830110403 81 104 2.0 4.0 0.00 0.00 0.00 87 1015.9
20260830105904 81 201 1.0 3.0 0.00 0.00 0.00 87 1015.9
20260830105404 81 278 1.0 3.0 0.00 0.00 0.00 87 1015.9
20260830104902 81 228 1.0 3.0 0.00 0.00 0.00 87 1015.8
20260830104618 81 166 1.0 4.0 0.00 0.00 0.00 86 1015.8
20260830104606 81 133 1.0 4.0 0.00 0.00 0.00 86 1016.0
20260830103855 81 81 1.0 4.0 0.00 0.00 0.00 86 1015.6
20260830103351 81 230 1.0 4.0 0.00 0.00 0.00 86 1015.7
20260830103104 81 267 1.0 4.0 0.00 0.00 0.00 86 1015.9
20260830102847 81 210 2.0 3.0 0.00 0.00 0.00 86 1015.7
20260830102343 81 198 1.0 3.0 0.00 0.00 0.00 86 1015.6
20260830101840 81 347 0.0 4.0 0.00 0.00 0.00 86 1015.7
20260830101821 81 113 1.0 4.0 0.00 0.00 0.00 86 1015.8
20260830101623 81 230 1.0 3.0 0.00 0.00 0.00 85 1016.0
20260830100831 81 274 1.0 3.0 0.00 0.00 0.00 86 1015.7
20260830100330 82 193 1.0 2.0 0.00 0.00 0.00 86 1015.8
20260830095830 82 250 1.0 2.0 0.00 0.00 0.00 86 1015.8
20260830095329 82 330 1.0 2.0 0.00 0.00 0.00 86 1015.8
20260830094829 82 274 0.0 4.0 0.00 0.00 0.00 86 1015.8
20260830094608 81 255 0.0 4.0 0.00 0.00 0.00 85 1016.0
20260830094329 82 217 1.0 4.0 0.00 0.00 0.00 86 1015.7
20260830093828 82 104 1.0 4.0 0.00 0.00 0.00 86 1015.8
20260830093328 82 37 1.0 4.0 0.00 0.00 0.00 85 1015.8
20260830093312 82 82 1.0 4.0 0.00 0.00 0.00 85 1015.7
20260830093102 81 264 1.0 5.0 0.00 0.00 0.00 85 1016.0
20260830092329 82 82 1.0 3.0 0.00 0.00 0.00 85 1015.9
20260830091829 82 285 1.0 6.0 0.00 0.00 0.00 85 1016.0
20260830091558 82 241 0.0 6.0 0.00 0.00 0.00 85 1016.2
20260830091329 82 203 1.0 6.0 0.00 0.00 0.00 85 1016.0
20260830090829 82 178 1.0 4.0 0.00 0.00 0.00 85 1016.0
20260830090329 82 207 2.0 5.0 0.00 0.00 0.00 85 1016.1
20260830090055 82 0 1.0 4.0 0.00 0.00 0.00 84 1016.3
20260830085831 82 181 2.0 5.0 0.00 0.00 0.00 85 1016.0
20260830085537 82 271 2.0 4.0 0.00 0.00 0.00 85 1016.1
20260830085524 82 193 2.0 4.0 0.00 0.00 0.00 85 1016.2
20260830084554 82 207 1.0 6.0 0.00 0.00 0.00 84 1016.4
20260830084328 82 47 0.0 6.0 0.00 0.00 0.00 85 1016.1
20260830083829 82 71 1.0 6.0 0.00 0.00 0.00 85 1016.2
20260830083328 82 81 2.0 5.0 0.00 0.00 0.00 85 1016.3
20260830083109 82 219 0.0 5.0 0.00 0.00 0.00 84 1016.6
20260830082828 82 161 1.0 5.0 0.00 0.00 0.00 84 1016.3
20260830082549 82 129 2.0 6.0 0.00 0.00 0.00 84 1016.3
20260830082050 82 269 2.0 6.0 0.00 0.00 0.00 84 1016.4
20260830081558 82 239 0.0 4.0 0.00 0.00 0.00 84 1016.6
20260830081329 83 285 1.0 4.0 0.00 0.00 0.00 84 1016.4
20260830080828 83 43 2.0 7.0 0.00 0.00 0.00 84 1016.3
20260830080328 83 48 2.0 7.0 0.00 0.00 0.00 84 1016.4
20260830080055 82 231 1.0 5.0 0.00 0.00 0.00 84 1016.6
20260830075831 83 320 2.0 6.0 0.00 0.00 0.00 84 1016.3
20260830075330 83 330 2.0 5.0 0.00 0.00 0.00 84 1016.4
20260830074830 83 128 2.0 8.0 0.00 0.00 0.00 84 1016.5
20260830074556 83 53 3.0 8.0 0.00 0.00 0.00 84 1016.7
20260830074554 82 15 1.0 8.0 0.00 0.00 0.00 83 1016.7
20260830073830 83 314 1.0 5.0 0.00 0.00 0.00 84 1016.7
20260830073330 83 233 3.0 5.0 0.00 0.00 0.00 84 1016.7
20260830073102 82 0 0.0 5.0 0.00 0.00 0.00 83 1017.0
20260830072825 83 180 1.0 6.0 0.00 0.00 0.00 84 1016.7
20260830072321 83 207 1.0 9.0 0.00 0.00 0.00 84 1016.7
20260830071818 83 127 1.0 9.0 0.00 0.00 0.00 84 1016.8
20260830071608 82 233 1.0 3.0 0.00 0.00 0.00 83 1017.1
20260830071314 83 359 1.0 3.0 0.00 0.00 0.00 84 1016.8
20260830070811 83 300 1.0 5.0 0.00 0.00 0.00 84 1016.9
20260830070307 83 259 2.0 5.0 0.00 0.00 0.00 84 1016.9
20260830070110 83 243 1.0 3.0 0.00 0.00 0.00 83 1017.1
20260830065803 83 288 1.0 4.0 0.00 0.00 0.00 84 1017.0
20260830065305 83 23 0.0 3.0 0.00 0.00 0.00 84 1016.9
20260830064802 83 108 1.0 6.0 0.00 0.00 0.00 84 1016.9
20260830064554 83 116 1.0 6.0 0.00 0.00 0.00 83 1017.2
20260830064527 83 194 1.0 6.0 0.00 0.00 0.00 84 1017.0
20260830063815 83 281 1.0 4.0 0.00 0.00 0.00 84 1017.0
20260830063302 83 145 2.0 4.0 0.00 0.00 0.00 83 1016.9
20260830063100 83 235 0.0 6.0 0.00 0.00 0.00 83 1017.3
20260830062802 83 353 2.0 6.0 0.00 0.00 0.00 83 1017.0
20260830062305 84 240 2.0 6.0 0.00 0.00 0.00 83 1017.0
20260830062031 84 194 2.0 6.0 0.00 0.00 0.00 83 1017.1
20260830061557 83 92 1.0 5.0 0.00 0.00 0.00 82 1017.3
20260830061315 84 356 2.0 5.0 0.00 0.00 0.00 83 1017.2
20260830060803 84 176 1.0 8.0 0.00 0.00 0.00 82 1017.2
20260830060257 84 158 4.0 8.0 0.00 0.00 0.00 82 1017.2
20260830055757 84 354 2.0 6.0 0.00 0.00 0.00 82 1017.0
20260830055252 84 41 2.0 9.0 0.00 0.00 0.00 82 1017.2
20260830054747 84 154 3.0 9.0 0.00 0.00 0.00 81 1017.2
20260830054557 83 276 1.0 5.0 0.00 0.00 0.00 80 1017.4
20260830054244 84 207 2.0 7.0 0.00 0.00 0.00 81 1017.3
20260830054000 84 175 2.0 7.0 0.00 0.00 0.00 80 1017.3
20260830053235 84 0 2.0 6.0 0.00 0.00 0.00 80 1017.3
20260830053056 84 231 2.0 6.0 0.00 0.00 0.00 80 1017.5
20260830052729 84 68 2.0 4.0 0.00 0.00 0.00 80 1017.4
20260830052229 84 264 2.0 4.0 0.00 0.00 0.00 80 1017.4
20260830051729 84 127 1.0 5.0 0.00 0.00 0.00 79 1017.4
20260830051601 84 224 1.0 6.0 0.00 0.00 0.00 79 1017.5
20260830051229 84 281 1.0 5.0 0.00 0.00 0.00 79 1017.4
20260830050729 84 32 2.0 5.0 0.00 0.00 0.00 79 1017.3
20260830050229 84 260 2.0 4.0 0.00 0.00 0.00 78 1017.3
20260830050105 84 309 1.0 4.0 0.00 0.00 0.00 78 1017.6
20260830045729 84 212 1.0 4.0 0.00 0.00 0.00 78 1017.3
20260830045507 84 61 2.0 5.0 0.00 0.00 0.00 78 1017.4
20260830044730 85 315 2.0 5.0 0.00 0.00 0.00 77 1017.4
20260830044609 84 303 1.0 6.0 0.00 0.00 0.00 77 1017.6
20260830044231 85 298 2.0 5.0 0.00 0.00 0.00 77 1017.3
20260830043731 85 144 2.0 5.0 0.00 0.00 0.00 77 1017.3
20260830043229 85 179 2.0 6.0 0.00 0.00 0.00 76 1017.2
20260830043053 84 163 2.0 7.0 0.00 0.00 0.00 76 1017.6
20260830042949 85 18 2.0 7.0 0.00 0.00 0.00 76 1017.2
20260830042711 85 273 3.0 7.0 0.00 0.00 0.00 75 1017.3
20260830041729 85 228 3.0 6.0 0.00 0.00 0.00 75 1017.2
20260830041608 85 269 2.0 6.0 0.00 0.00 0.00 74 1017.5
20260830041229 85 250 3.0 6.0 0.00 0.00 0.00 75 1017.3
20260830040729 85 290 3.0 6.0 0.00 0.00 0.00 74 1017.2
20260830040228 85 96 3.0 7.0 0.00 0.00 0.00 74 1017.1
20260830035729 85 304 4.0 8.0 0.00 0.00 0.00 74 1017.2
20260830035230 85 266 4.0 8.0 0.00 0.00 0.00 73 1017.2
20260830034730 86 19 2.0 6.0 0.00 0.00 0.00 73 1017.2
20260830034600 85 204 2.0 9.0 0.00 0.00 0.00 72 1017.4
20260830034230 86 317 3.0 8.0 0.00 0.00 0.00 73 1017.1
20260830033730 86 217 3.0 8.0 0.00 0.00 0.00 72 1017.1
20260830033229 86 210 2.0 9.0 0.00 0.00 0.00 72 1017.0
20260830033057 86 157 4.0 9.0 0.00 0.00 0.00 72 1017.2
20260830032728 86 238 4.0 9.0 0.00 0.00 0.00 72 1016.9
20260830032230 86 309 4.0 9.0 0.00 0.00 0.00 72 1016.9
20260830031729 86 274 4.0 9.0 0.00 0.00 0.00 71 1016.9
20260830031608 86 242 3.0 7.0 0.00 0.00 0.00 71 1017.1
20260830031229 87 321 2.0 7.0 0.00 0.00 0.00 71 1016.8
20260830030951 87 328 4.0 11.0 0.00 0.00 0.00 71 1016.7
20260830030228 87 281 5.0 11.0 0.00 0.00 0.00 70 1016.7
20260830030109 86 275 4.0 10.0 0.00 0.00 0.00 70 1016.8
20260830025728 87 74 5.0 11.0 0.00 0.00 0.00 70 1016.6
20260830025228 87 266 2.0 6.0 0.00 0.00 0.00 69 1016.4
20260830024724 87 315 3.0 10.0 0.00 0.00 0.00 69 1016.3
20260830024608 87 255 2.0 9.0 0.00 0.00 0.00 68 1016.5
20260830024218 87 258 6.0 10.0 0.00 0.00 0.00 69 1016.2
20260830023714 88 11 3.0 10.0 0.00 0.00 0.00 68 1016.2
20260830023208 88 102 3.0 9.0 0.00 0.00 0.00 68 1016.2
20260830023110 87 259 3.0 9.0 0.00 0.00 0.00 68 1016.3
20260830022705 88 113 4.0 9.0 0.00 0.00 0.00 68 1016.1
20260830022203 88 257 5.0 11.0 0.00 0.00 0.00 67 1016.0
20260830021715 88 86 6.0 11.0 0.00 0.00 0.00 67 1016.0
20260830021601 88 224 6.0 11.0 0.00 0.00 0.00 67 1016.2
20260830021202 89 165 4.0 13.0 0.00 0.00 0.00 67 1015.9
20260830020702 89 301 6.0 13.0 0.00 0.00 0.00 66 1015.9
20260830020425 89 299 6.0 11.0 0.00 0.00 0.00 66 1016.0
20260830020057 89 68 5.0 11.0 0.00 0.00 0.00 65 1016.1
20260830015702 89 89 5.0 9.0 0.00 0.00 0.00 65 1015.9
20260830015201 89 235 3.0 8.0 0.00 0.00 0.00 64 1015.9
20260830014703 89 221 5.0 12.0 0.00 0.00 0.00 64 1015.8
20260830014555 89 259 5.0 11.0 0.00 0.00 0.00 63 1016.0
20260830014202 89 37 6.0 12.0 0.00 0.00 0.00 63 1015.6
20260830013702 90 6 5.0 12.0 0.00 0.00 0.00 63 1015.7
20260830013202 90 97 5.0 12.0 0.00 0.00 0.00 63 1015.7
20260830013104 89 195 7.0 12.0 0.00 0.00 0.00 62 1015.8
20260830012659 90 160 5.0 11.0 0.00 0.00 0.00 62 1015.6
20260830012154 90 205 3.0 9.0 0.00 0.00 0.00 62 1015.4
20260830011649 90 238 4.0 10.0 0.00 0.00 0.00 62 1015.3
20260830011607 90 72 4.0 12.0 0.00 0.00 0.00 62 1015.6
20260830011145 91 333 6.0 12.0 0.00 0.00 0.00 62 1015.3